| time (UTC) | temp C | wind direction | speed KPH | gust KPH | rain 1hr cm | rain 24hr cm | rain mn cm | humidity % | barometer mb |
| 20260509071548 | 16 | 329 | 3.2 | 8.0 | 0.00 | 0.00 | 0.00 | 51 | 1018.9 |
| 20260509070042 | 15 | 0 | 0.0 | 6.4 | 0.00 | 0.00 | 0.00 | 56 | 1018.9 |
| 20260509064542 | 13 | 29 | 1.6 | 3.2 | 0.00 | 0.00 | 0.00 | 63 | 1019.0 |
| 20260509063044 | 12 | 9 | 1.6 | 3.2 | 0.00 | 0.00 | 0.00 | 64 | 1019.1 |
| 20260509061543 | 11 | 21 | 1.6 | 4.8 | 0.00 | 0.00 | 0.00 | 70 | 1019.2 |
| 20260509060104 | 9 | 24 | 1.6 | 3.2 | 0.00 | 0.00 | 0.00 | 74 | 1019.1 |
| 20260509054549 | 7 | 352 | 1.6 | 4.8 | 0.00 | 0.00 | 0.00 | 79 | 1019.0 |
| 20260509053110 | 6 | 9 | 0.0 | 1.6 | 0.00 | 0.00 | 0.00 | 83 | 1019.0 |
| 20260509051553 | 6 | 9 | 1.6 | 3.2 | 0.00 | 0.00 | 0.00 | 81 | 1019.1 |
| 20260509050043 | 7 | 352 | 1.6 | 3.2 | 0.00 | 0.00 | 0.00 | 81 | 1018.9 |
| 20260509044609 | 7 | 9 | 1.6 | 4.8 | 0.00 | 0.00 | 0.00 | 82 | 1019.0 |
| 20260509043117 | 7 | 331 | 1.6 | 3.2 | 0.00 | 0.00 | 0.00 | 82 | 1019.1 |
| 20260509041545 | 7 | 0 | 0.0 | 1.6 | 0.00 | 0.00 | 0.00 | 80 | 1019.1 |
| 20260509040051 | 7 | 319 | 0.0 | 3.2 | 0.00 | 0.00 | 0.00 | 79 | 1019.2 |
| 20260509034549 | 8 | 0 | 0.0 | 4.8 | 0.00 | 0.00 | 0.00 | 78 | 1019.0 |
| 20260509033048 | 8 | 19 | 3.2 | 6.4 | 0.00 | 0.00 | 0.00 | 79 | 1019.1 |
| 20260509031558 | 8 | 9 | 1.6 | 6.4 | 0.00 | 0.00 | 0.00 | 79 | 1019.2 |
| 20260509030108 | 8 | 9 | 3.2 | 6.4 | 0.00 | 0.00 | 0.00 | 79 | 1019.1 |
| 20260509024548 | 8 | 9 | 4.8 | 6.4 | 0.00 | 0.00 | 0.00 | 77 | 1019.2 |
| 20260509023045 | 9 | 17 | 3.2 | 6.4 | 0.00 | 0.00 | 0.00 | 75 | 1019.2 |
| 20260509021547 | 10 | 17 | 3.2 | 12.9 | 0.00 | 0.00 | 0.00 | 71 | 1019.2 |
| 20260509020045 | 10 | 335 | 3.2 | 8.0 | 0.00 | 0.00 | 0.00 | 74 | 1019.4 |
| 20260509014555 | 9 | 0 | 0.0 | 3.2 | 0.00 | 0.00 | 0.00 | 75 | 1019.6 |
| 20260509013044 | 10 | 9 | 1.6 | 3.2 | 0.00 | 0.00 | 0.00 | 75 | 1019.7 |
| 20260509011556 | 10 | 338 | 0.0 | 4.8 | 0.00 | 0.00 | 0.00 | 74 | 1020.0 |
| 20260509010051 | 10 | 0 | 1.6 | 8.0 | 0.00 | 0.00 | 0.00 | 72 | 1020.0 |
| 20260509004555 | 10 | 347 | 0.0 | 3.2 | 0.00 | 0.00 | 0.00 | 74 | 1020.1 |
| 20260509003049 | 9 | 315 | 0.0 | 4.8 | 0.00 | 0.00 | 0.00 | 77 | 1020.1 |
| 20260509001544 | 9 | 334 | 0.0 | 4.8 | 0.00 | 0.00 | 0.00 | 78 | 1020.4 |
| 20260509000043 | 9 | 360 | 1.6 | 4.8 | 0.00 | 0.00 | 0.00 | 78 | 1020.4 |
| 20260508234549 | 9 | 350 | 3.2 | 4.8 | 0.00 | 0.00 | 0.00 | 77 | 1020.5 |
| 20260508233042 | 10 | 336 | 1.6 | 6.4 | 0.00 | 0.00 | 0.00 | 76 | 1020.5 |
| 20260508231548 | 10 | 287 | 4.8 | 12.9 | 0.00 | 0.00 | 0.00 | 73 | 1020.5 |
| 20260508230044 | 8 | 315 | 3.2 | 6.4 | 0.00 | 0.00 | 0.00 | 82 | 1020.5 |
| 20260508224558 | 7 | 346 | 0.0 | 3.2 | 0.00 | 0.00 | 0.00 | 85 | 1020.1 |
| 20260508223051 | 6 | 0 | 0.0 | 3.2 | 0.00 | 0.00 | 0.00 | 88 | 1020.2 |
| 20260508221538 | 7 | 313 | 0.0 | 3.2 | 0.00 | 0.00 | 0.00 | 87 | 1020.5 |
| 20260508220048 | 7 | 352 | 0.0 | 3.2 | 0.00 | 0.00 | 0.00 | 87 | 1020.3 |
| 20260508214544 | 7 | 348 | 1.6 | 4.8 | 0.00 | 0.00 | 0.00 | 88 | 1020.4 |
| 20260508213045 | 6 | 360 | 3.2 | 9.7 | 0.00 | 0.00 | 0.00 | 87 | 1020.5 |
| 20260508211540 | 7 | 350 | 4.8 | 11.3 | 0.00 | 0.00 | 0.00 | 85 | 1020.5 |
| 20260508210050 | 7 | 344 | 4.8 | 6.4 | 0.00 | 0.00 | 0.00 | 84 | 1020.7 |
| 20260508204540 | 8 | 360 | 1.6 | 4.8 | 0.00 | 0.00 | 0.00 | 83 | 1020.9 |
| 20260508203042 | 8 | 0 | 0.0 | 6.4 | 0.00 | 0.00 | 0.00 | 81 | 1021.0 |
| 20260508201544 | 8 | 352 | 3.2 | 6.4 | 0.00 | 0.00 | 0.00 | 83 | 1021.1 |
| 20260508200043 | 8 | 338 | 3.2 | 8.0 | 0.00 | 0.00 | 0.00 | 85 | 1021.2 |
| 20260508194542 | 8 | 328 | 4.8 | 6.4 | 0.00 | 0.00 | 0.00 | 84 | 1021.2 |
| 20260508193040 | 8 | 360 | 6.4 | 9.7 | 0.00 | 0.00 | 0.00 | 84 | 1021.3 |
| 20260508191548 | 8 | 350 | 4.8 | 8.0 | 0.00 | 0.00 | 0.00 | 83 | 1021.3 |
| 20260508190046 | 8 | 9 | 4.8 | 6.4 | 0.00 | 0.00 | 0.00 | 82 | 1021.4 |
| 20260508184548 | 9 | 350 | 4.8 | 6.4 | 0.00 | 0.00 | 0.00 | 80 | 1021.3 |
| 20260508183046 | 9 | 352 | 3.2 | 6.4 | 0.00 | 0.00 | 0.00 | 80 | 1021.4 |
| 20260508181539 | 10 | 351 | 3.2 | 8.0 | 0.00 | 0.00 | 0.00 | 80 | 1021.6 |
| 20260508180049 | 10 | 346 | 1.6 | 4.8 | 0.00 | 0.00 | 0.00 | 79 | 1021.4 |
| 20260508174554 | 10 | 9 | 3.2 | 6.4 | 0.00 | 0.00 | 0.00 | 78 | 1021.4 |
| 20260508173050 | 10 | 343 | 1.6 | 6.4 | 0.00 | 0.00 | 0.00 | 80 | 1021.3 |
| 20260508171548 | 10 | 350 | 1.6 | 3.2 | 0.00 | 0.00 | 0.00 | 79 | 1021.3 |
| 20260508170039 | 11 | 0 | 0.0 | 3.2 | 0.00 | 0.00 | 0.00 | 76 | 1021.4 |
| 20260508164551 | 11 | 0 | 0.0 | 4.8 | 0.00 | 0.00 | 0.00 | 76 | 1021.3 |
| 20260508163048 | 11 | 0 | 0.0 | 1.6 | 0.00 | 0.00 | 0.00 | 75 | 1021.2 |
| 20260508161552 | 12 | 0 | 0.0 | 0.0 | 0.00 | 0.00 | 0.00 | 71 | 1021.2 |
| 20260508160044 | 12 | 0 | 0.0 | 0.0 | 0.00 | 0.00 | 0.00 | 66 | 1021.1 |
| 20260508154607 | 13 | 0 | 0.0 | 0.0 | 0.00 | 0.03 | 0.00 | 64 | 1021.1 |
| 20260508153047 | 14 | 15 | 0.0 | 6.4 | 0.00 | 0.03 | 0.00 | 58 | 1021.1 |
| 20260508151549 | 15 | 13 | 1.6 | 11.3 | 0.00 | 0.03 | 0.00 | 56 | 1021.1 |
| 20260508150056 | 15 | 13 | 4.8 | 14.5 | 0.00 | 0.03 | 0.00 | 53 | 1020.9 |
| 20260508144542 | 15 | 254 | 6.4 | 11.3 | 0.00 | 0.05 | 0.00 | 50 | 1021.0 |
| 20260508143105 | 15 | 221 | 6.4 | 12.9 | 0.00 | 0.05 | 0.00 | 50 | 1020.9 |
| 20260508141546 | 16 | 237 | 6.4 | 14.5 | 0.00 | 0.05 | 0.00 | 48 | 1020.9 |
| 20260508134545 | 16 | 253 | 6.4 | 14.5 | 0.00 | 0.05 | 0.00 | 49 | 1021.1 |
| 20260508133104 | 16 | 263 | 11.3 | 17.7 | 0.00 | 0.05 | 0.00 | 46 | 1021.1 |
| 20260508131548 | 16 | 184 | 3.2 | 14.5 | 0.00 | 0.05 | 0.00 | 50 | 1021.0 |
| 20260508130047 | 16 | 9 | 3.2 | 9.7 | 0.00 | 0.05 | 0.00 | 48 | 1021.1 |
| 20260508124547 | 16 | 18 | 4.8 | 8.0 | 0.00 | 0.05 | 0.00 | 47 | 1021.1 |
| 20260508123052 | 16 | 223 | 0.0 | 9.7 | 0.00 | 0.05 | 0.00 | 50 | 1021.3 |
| 20260508121543 | 16 | 289 | 4.8 | 12.9 | 0.00 | 0.05 | 0.00 | 49 | 1021.5 |
| 20260508120046 | 15 | 0 | 3.2 | 16.1 | 0.00 | 0.05 | 0.00 | 50 | 1021.5 |
| 20260508114550 | 16 | 0 | 3.2 | 17.7 | 0.00 | 0.05 | 0.00 | 49 | 1021.7 |
| 20260508113057 | 16 | 266 | 4.8 | 9.7 | 0.00 | 0.05 | 0.00 | 50 | 1021.7 |
| 20260508111547 | 16 | 360 | 3.2 | 9.7 | 0.00 | 0.05 | 0.00 | 50 | 1022.0 |
| 20260508110043 | 15 | 173 | 6.4 | 11.3 | 0.00 | 0.05 | 0.00 | 54 | 1022.3 |
| 20260508104548 | 15 | 332 | 0.0 | 16.1 | 0.00 | 0.05 | 0.00 | 53 | 1022.6 |
| 20260508103051 | 16 | 329 | 1.6 | 6.4 | 0.00 | 0.05 | 0.00 | 53 | 1022.8 |
| 20260508101547 | 15 | 229 | 3.2 | 11.3 | 0.00 | 0.05 | 0.00 | 55 | 1023.1 |
| 20260508100052 | 15 | 242 | 1.6 | 6.4 | 0.00 | 0.05 | 0.00 | 53 | 1023.3 |
| 20260508094549 | 14 | 0 | 3.2 | 14.5 | 0.00 | 0.05 | 0.00 | 58 | 1023.9 |
| 20260508093048 | 14 | 323 | 1.6 | 12.9 | 0.00 | 0.05 | 0.00 | 59 | 1024.1 |
| 20260508091601 | 13 | 280 | 1.6 | 8.0 | 0.00 | 0.05 | 0.00 | 62 | 1024.2 |
| 20260508090047 | 13 | 352 | 1.6 | 14.5 | 0.00 | 0.05 | 0.00 | 64 | 1024.4 |
| 20260508084555 | 12 | 336 | 3.2 | 8.0 | 0.00 | 0.05 | 0.00 | 66 | 1024.5 |
| 20260508083052 | 12 | 352 | 1.6 | 4.8 | 0.00 | 0.05 | 0.00 | 70 | 1024.5 |
| 20260508081550 | 11 | 17 | 3.2 | 6.4 | 0.00 | 0.05 | 0.00 | 73 | 1024.7 |
| 20260508080054 | 11 | 9 | 3.2 | 6.4 | 0.00 | 0.05 | 0.00 | 74 | 1024.7 |
| 20260508074548 | 11 | 9 | 3.2 | 6.4 | 0.00 | 0.05 | 0.00 | 78 | 1024.8 |
| 20260508073100 | 10 | 350 | 3.2 | 6.4 | 0.00 | 0.05 | 0.00 | 79 | 1024.8 |